Location: Christianberg
(48.9086°N, 14.0209°E)
Time: 21:05:53
(UTC+00:00)

Cosmos 1125 Rocket - Pass Details

Date: 20 June 2021
Orbit: 757 x 780 km, 74.0° (Epoch: 03 August)

Event Time Altitude Azimuth Distance (km) Brightness Sun altitude
Rises 01:03:52 0° 338° (NNW) 3,243 7.4 -13.0°
Reaches altitude 10° 01:06:16 10° 342° (NNW) 2,317 6.6 -12.8°
Maximum altitude 01:11:30 65° 64° (ENE) 850 4.0 -12.4°
Drops below altitude 10° 01:16:44 10° 146° (SSE) 2,316 5.7 -12.0°
Sets 01:19:08 0° 150° (SSE) 3,243 6.5 -11.8°
